sat.trackr.live / text

‹ back to catalog

GHGSAT-C6

NORAD 56204 · 2023-054AC

PAYLOAD ACTIVE UNKNOWN

§ Identity

Operator
Country
CA
Launch date
2023-04-15
Launch site
AFWTR
Launch vehicle
Mass (kg)
RCS (m²)

External: N2YO · Heavens-Above · Gunter

§ Orbital elements

Epoch: 2026-09-21T22:55:36.698304Z

Period
92.57 min
Inclination
97.2954°
Eccentricity
0.0007389
Mean motion
15.55606486 rev/d
Perigee alt
395.4 km
Apogee alt
405.4 km
Semi-major
6,778.5 km
B*
1.7938e-4
RAAN
176.7260°
Arg perigee
57.0098°
Mean anomaly
303.1866°
Rev number
19,348

§ Raw data

GHGSAT-C61 56204U 23054AC  26264.95528586  .00012210  00000+0  17938-3 0  99952 56204  97.2954 176.7260 0007389  57.0098 303.1866 15.55606486193488

JSON: /api/v1/satellites/56204 · /tle

For live sub-satellite position, see the globe view (requires WebGL).

§ Visibility from observer

Set your observer location to see the next 7 days of passes ≥ 10°. The values pass through the URL so the page stays shareable.

No JS? Fill the form by hand. The geolocation button needs JavaScript.